Tracking 21076 objects as of 7-Aug-2020
HD Live streaming from Space Station
objects crossing your sky now

SL-8 R/B

Track SL-8 R/B now!
10-day predictions


NORAD ID: 18945
Int'l Code: 1988-016J
Perigee: 1,470.5 km
Apogee: 1,694.1 km
Inclination: 74.0 °
Period: 117.6 minutes
Semi major axis: 7953 km
RCS: 6.0441 m2 (large)
Launch date: March 11, 1988
Source: Commonwealth of Independent States (former USSR) (CIS)
Launch site: PLESETSK MISSILE AND SPACE COMPLEX (PKMTR)

Note: This is a ROCKET BODY
aabbcc
Your satellite tracking list
Your tracking list is empty




NASA's NSSDC Master Catalog

Two Line Element Set (TLE):
1 18945U 88016J   20219.54168847 -.00000016 +00000-0 -22910-5 0  9995
2 18945 074.0087 302.6483 0140618 276.3936 215.6999 12.24000737447986
Source of the keplerian elements: AFSPC